Santa Fe, NM

2:22 AM MDT on April 23, 2017 (GMT -0600)
Santa Fe Municipal

Weather History for KSAF - February, 2013

Change the Weather History Date:

Saturday, February 2, 2013

  Actual Average Record
Temperature  
Mean Temperature 39 °F -  
Max Temperature 51 °F 0 °F 63 °F (2003)
Min Temperature 26 °F - -13 °F (2011)
Degree Days  
Heating Degree Days 26    
Moisture  
Dew Point 18 °F    
Average Humidity 52    
Maximum Humidity 72    
Minimum Humidity 25    
Precipitation  
Precipitation 0.00 in - - ()
Sea Level Pressure  
Sea Level Pressure 30.30 in    
Wind  
Wind Speed 9 mph (NNW)    
Max Wind Speed 14 mph    
Max Gust Speed -    
Visibility 10 miles    
Events      
Averages and records for this station are not official NWS values.
T = Trace of Precipitation, MM = Missing Value Source: NWS Daily Summary

Daily Weather History Graph

Daily Weather History Graph

Search for Another Location

Airport or City:

Trip Planner

Search our weather history database for the weather conditions in past years. The results will help you decide how hot, cold, wet, or windy it might be!

Date:

Astronomy

Feb. 02, 2013 Rise Set
Actual Time 7:03 AM MST 5:33 PM MST
Civil Twilight 6:36 AM MST 6:00 PM MST
Nautical Twilight 6:06 AM MST 6:30 PM MST
Astronomical Twilight 5:36 AM MST 7:00 PM MST
Moon No Moon Rise 10:31 AM MST (2/2)
Length of Visible Light 11h 23m
Length of Day
10h 30m
Waning Gibbous, 59% of the Moon is Illuminated
Feb 2
Waning Gibbous
Feb 3
Last Quarter
Feb 10
New
Feb 17
First Quarter
Feb 25
Full

Hourly Weather History & Observations

Time (MST) Temp. Windchill Dew Point Humidity Pressure Visibility Wind Dir Wind Speed Gust Speed Precip Events Conditions
12:53 AM 32.0 °F 24.2 °F 19.9 °F 61% 30.23 in 10.0 mi North 9.2 mph - N/A   Clear
2:53 AM 30.9 °F 22.2 °F 21.0 °F 67% 30.25 in 10.0 mi NNW 10.4 mph - N/A   Clear
3:53 AM 32.0 °F 22.1 °F 21.0 °F 64% 30.23 in 10.0 mi North 13.8 mph - N/A   Clear
4:53 AM 30.9 °F 21.2 °F 19.9 °F 64% 30.26 in 10.0 mi NNW 12.7 mph - N/A   Clear
5:53 AM 30.0 °F 19.5 °F 19.9 °F 66% 30.30 in 10.0 mi NNW 13.8 mph - N/A   Clear
6:53 AM 27.0 °F 18.7 °F 19.0 °F 72% 30.32 in 10.0 mi NNW 8.1 mph - N/A   Clear
7:53 AM 30.9 °F 22.8 °F 19.9 °F 64% 30.32 in 10.0 mi NNW 9.2 mph - N/A   Clear
8:53 AM 32.0 °F 22.5 °F 19.9 °F 61% 30.35 in 10.0 mi North 12.7 mph - N/A   Clear
9:53 AM 37.9 °F 32.1 °F 21.0 °F 51% 30.35 in 10.0 mi North 8.1 mph - N/A   Clear
10:53 AM 43.0 °F 37.2 °F 21.0 °F 42% 30.33 in 10.0 mi NNE 10.4 mph - N/A   Clear
11:53 AM 45.0 °F 40.6 °F 21.0 °F 39% 30.33 in 10.0 mi North 8.1 mph - N/A   Clear
12:53 PM 46.9 °F - 19.9 °F 34% 30.29 in 10.0 mi North 4.6 mph - N/A   Clear
1:53 PM 50.0 °F - 17.1 °F 27% 30.26 in 10.0 mi Variable 3.5 mph - N/A   Clear
2:53 PM 51.1 °F - 17.1 °F 26% 30.25 in 10.0 mi West 8.1 mph - N/A   Clear
3:53 PM 48.9 °F - 14.0 °F 25% 30.25 in 10.0 mi WSW 11.5 mph - N/A   Clear
4:53 PM 46.0 °F 43.1 °F 12.9 °F 26% 30.26 in 10.0 mi WSW 5.8 mph - N/A   Clear
5:53 PM 43.0 °F 41.3 °F 12.0 °F 28% 30.28 in 10.0 mi West 3.5 mph - N/A   Clear
6:53 PM 41.0 °F - 14.0 °F 33% 30.32 in 10.0 mi Calm Calm - N/A   Clear
7:53 PM 30.9 °F - 18.0 °F 59% 30.36 in 10.0 mi Calm Calm - N/A   Clear
8:53 PM 27.0 °F 20.5 °F 19.0 °F 72% 30.37 in 10.0 mi North 5.8 mph - N/A   Clear
9:53 PM 27.0 °F 18.7 °F 19.0 °F 72% 30.34 in 10.0 mi North 8.1 mph - N/A   Clear
10:53 PM 28.9 °F 25.2 °F 18.0 °F 64% 30.31 in 10.0 mi East 3.5 mph - N/A   Clear
11:53 PM 26.1 °F 17.6 °F 18.0 °F 71% 30.29 in 10.0 mi North 8.1 mph - N/A   Clear